User: anonymous   Login
Location: Pine Mountain Observatory
(43.7910°N, 120.9377°W)
Time: 04:52:13
(UTC-07:00)
Language:

Meteor 2-19 Rocket - Orbit

View from above orbital plane
View from above orbital plane
View from above satellite
View from above satellite

Ground track
Ground track

The orbit data is extracted from the following two-line orbital elements,

1 20671U 90057B   15142.85894733  .00000053  00000-0  34013-4 0  9990
2 20671 082.5481 253.2865 0013927 282.5047 193.3261 13.84590498258402
Epoch (UTC): 22 May 2015 20:36:53
Eccentricity: 0.0013927
inclination: 82.5481°
perigee height: 937 km
apogee height: 958 km
right ascension of ascending node: 253.2865°
argument of perigee: 282.5047°
revolutions per day: 13.84590498
mean anomaly at epoch: 193.3261°
orbit number at epoch: 25840

The dashed part of the orbit path shows where the satellite is in the earth's shadow,  

DLR